Location: Mentone
(34.5413°N, 85.5351°W)
Time: 03:44:11
(UTC-05:00)

Tiros 1 despin weight - Visible Passes

Search period start: 23 May 2017 00:00
Search period end: 02 June 2017 00:00
Orbit: 595 x 644 km, 48.2° (Epoch: 22 May)

Date Brightness Start Highest point End Pass type
(mag) Time Alt. Az. Time Alt. Az. Time Alt. Az.
23 May ? 03:09:14 15° SE 03:09:15 15° SE 03:11:54 10° E visible
23 May ? 04:46:19 12° WSW 04:50:22 77° NW 04:54:54 10° NE visible
24 May ? 03:25:30 32° SSE 03:25:58 33° SE 03:30:01 10° ENE visible
24 May ? 05:03:16 10° W 05:07:29 40° NNW 05:11:47 10° NE visible
25 May ? 03:41:41 47° SSW 03:42:50 73° SE 03:47:20 10° NE visible
26 May ? 02:20:44 16° E 02:20:44 16° E 02:22:02 10° E visible
26 May ? 03:57:48 29° W 03:59:52 56° NNW 04:04:19 10° NE visible
27 May ? 02:36:48 34° E 02:36:48 34° E 02:39:41 10° ENE visible
27 May ? 04:13:52 14° W 04:17:04 32° NNW 04:21:08 10° NE visible
28 May ? 02:52:49 69° NNE 02:52:49 69° NNE 02:56:49 10° NE visible
28 May ? 04:30:59 10° WNW 04:34:26 21° NNW 04:37:55 10° NNE visible
29 May ? 01:31:42 11° ENE 01:31:42 11° ENE 01:31:52 10° ENE visible
29 May ? 03:08:46 40° NW 03:09:25 43° NNW 03:13:42 10° NE visible
29 May ? 04:49:04 10° NW 04:51:54 16° NNW 04:54:46 10° NNE visible
30 May ? 01:47:37 22° ENE 01:47:37 22° ENE 01:49:14 10° ENE visible
30 May ? 03:24:40 19° WNW 03:26:41 26° NNW 03:30:28 10° NE visible
31 May ? 02:03:28 35° NNE 02:03:28 35° NNE 02:06:14 10° NE visible
31 May ? 03:40:58 10° WNW 03:44:06 18° NNW 03:47:16 10° NNE visible
01 Jun ? 02:19:16 33° NNW 02:19:16 33° NNW 02:23:03 10° NE visible
01 Jun ? 03:59:03 10° NW 04:01:38 15° N 04:04:13 10° NNE visible
